Yaogan 43-02-06

operational
NORAD ID: 60950 Int'l Des: 2024-156 Owner: ZZB Country: CN Constellation: yaogan
LEOCIRCULAR

About Yaogan 43-02-06

Description loading...

Live Position

Loading 3D Globe...

Upcoming Passes

Altitude History

Altitude vs Time

uPlot chart will show altitude changes over time

Two-Line Element Set

1 60950U 24156F 26102.49659531 .00005235 00000-0 21897-3 0 9996
2 60950 34.9925 251.0336 0000278 272.4347 87.6336 15.22957372 89429
Epoch: Apr 12, 2026 • Age: 8 hours

Current Status

Altitude 505.0 km
Velocity 7.61 km/s
Sub-Earth Point -32.83°S, 49.44°E
Launch Date Sep 3, 2024
Age 1.6 years
Type military

Technical Details

Classification Payload
Mass 300.00 kg
Dry Mass 300.00 kg
Total Mass 300.00 kg
Length 2.50 m
Diameter 2.50 m
Span 5.00 m
Shape Box + 2 Pan
Manufacturer SAST
Phase Status In Orbit
Owner/State ZZB/CN

Large Constellations

Loading constellations...